Theta_e
323 323 323 322 321 324 325 324 324 326 327 328 329 329 328 327 326 326 328 326 326 327 327 325 324 323 323 322 320 319 316 316 313 301 296 295 294 293 291 291 291 290 290
320 323 324 326 326 327 327 329 330 331 331 331 328 327 327 326 326 325 327 328 327 326 326 326 326 324 324 324 321 318 316 314 310 296 295 294 294 293 291 291 290 291 290
314 316 318 319 321 323 325 327 328 328 329 328 325 325 325 325 325 325 326 325 323 327 325 324 323 325 324 322 319 319 314 306 299 295 294 294 294 293 291 291 290 295 291
309 309 309 309 309 309 310 313 317 320 322 324 324 322 323 324 324 323 321 321 323 325 323 324 323 319 322 322 320 318 312 313 295 294 293 293 293 292 291 291 294 297 289
309 309 309 309 309 309 309 309 309 309 310 314 321 321 320 320 318 319 319 320 322 320 321 320 320 321 320 320 318 316 310 312 293 293 292 292 292 291 292 292 298 296 290
309 309 309 309 309 309 309 309 309 309 310 310 311 311 311 310 312 315 317 317 317 316 316 317 318 317 318 316 313 313 308 295 297 294 292 292 292 292 293 296 296 293 290
308 308 309 309 309 309 309 309 309 309 309 309 309 309 309 309 309 310 310 309 310 314 313 311 313 314 315 315 313 307 298 301 295 292 292 292 292 293 296 294 296 297 297
309 308 308 308 309 309 309 309 309 309 309 309 309 309 310 310 310 310 310 310 310 309 311 312 313 313 311 310 308 302 299 298 293 291 291 290 291 291 294 292 291 294 288
308 308 308 308 307 308 308 307 308 308 308 308 308 309 309 309 310 311 311 310 310 311 310 310 311 311 309 306 306 301 299 296 291 291 290 290 292 290 295 292 292 291 290
308 308 307 307 307 307 307 307 306 307 307 307 308 308 309 309 310 311 312 312 312 312 311 311 309 307 303 302 300 299 298 293 293 291 290 289 292 292 295 291 294 294 292
308 308 307 307 307 307 306 306 306 306 306 306 307 307 307 308 310 309 310 311 310 309 308 306 304 303 303 299 298 297 294 294 293 289 289 289 291 291 295 295 295 296 292
307 307 307 307 307 307 307 307 307 306 306 305 305 305 304 305 306 307 308 307 305 304 304 302 301 299 299 298 297 297 295 291 289 289 289 288 290 291 297 296 296 296 291
305 305 305 304 304 304 305 305 305 306 306 305 304 303 302 303 303 305 305 304 301 300 300 300 299 297 296 295 295 293 291 290 293 290 288 288 290 291 293 293 295 295 290
303 302 302 302 302 302 302 302 302 303 303 304 304 304 304 303 301 301 302 303 303 302 299 297 296 295 294 292 290 290 290 292 292 289 288 288 288 289 293 294 295 293 287
301 301 301 300 300 300 300 300 301 301 302 301 301 301 302 301 301 301 301 300 300 298 297 297 296 295 295 294 294 290 289 289 291 291 288 287 287 288 291 293 294 291 287
299 299 299 298 298 297 297 297 298 298 298 299 299 299 299 299 299 298 298 297 296 294 296 295 294 293 293 292 291 291 292 292 290 288 288 287 287 288 289 293 293 289 288
298 298 297 296 296 295 295 295 294 294 294 295 296 297 298 298 298 298 297 296 293 291 290 290 291 291 290 290 290 291 291 291 290 289 289 289 287 288 290 292 290 289 289
296 295 295 294 294 293 293 292 291 291 291 291 291 292 293 293 294 294 294 294 294 293 291 289 289 289 289 289 289 289 289 289 289 289 289 289 287 287 290 291 289 289 288
294 293 293 292 291 289 288 288 288 288 287 287 287 287 287 287 287 288 289 290 291 292 290 287 287 287 287 287 287 287 287 287 287 287 287 287 287 286 287 288 287 287 286
291 290 289 288 287 287 287 287 287 287 286 286 286 286 286 286 286 286 285 286 286 287 288 287 285 285 285 285 285 285 285 285 286 286 286 286 286 286 287 287 287 287 286
287 287 287 287 287 286 286 286 286 286 285 285 285 285 285 285 285 285 285 285 285 285 285 285 285 284 284 284 284 285 285 285 285 285 285 285 285 285 285 285 285 284 283
286 286 286 286 286 285 285 285 285 285 285 285 285 284 284 284 284 283 283 283 283 283 283 284 284 283 283 283 284 284 284 284 284 284 284 283 282 282 282 282 282 281 281
285 285 285 285 285 285 285 285 285 285 284 284 284 284 284 283 283 283 282 282 282 282 282 282 282 283 282 282 282 282 282 283 283 282 282 281 281 281 280 280 280 279 279
284 284 284 284 285 285 285 284 284 284 283 283 283 283 282 282 282 281 281 281 281 280 280 280 281 281 281 281 281 281 281 281 281 281 280 280 279 279 278 278 277 277 277
284 284 284 284 284 284 284 284 284 283 283 282 282 281 281 281 280 280 279 279 279 279 279 279 279 279 279 279 279 279 279 279 279 279 279 278 278 278 277 276 275 275 275
283 283 283 283 283 283 283 283 282 282 282 281 281 280 280 280 279 279 279 278 278 278 278 277 277 277 277 277 277 277 277 278 277 277 277 277 277 276 276 275 274 274 274
Wind_Speed
34 32 33 34 35 37 40 40 41 41 42 42 40 39 36 35 34 37 39 39 41 46 49 50 51 49 48 45 35 39 36 34 33 30 28 25 25 23 18 16 16 15 18
32 35 37 38 40 40 41 43 44 45 44 43 40 40 39 39 39 39 40 41 41 41 41 42 51 52 49 45 45 37 37 36 32 32 30 29 28 24 20 18 17 16 20
29 31 33 34 36 38 40 41 41 42 42 39 37 39 40 40 41 42 41 41 43 44 41 42 41 51 46 45 43 38 35 31 32 31 31 29 27 25 23 21 18 16 23
17 19 22 24 27 29 32 35 37 37 36 32 34 34 36 36 38 38 40 43 43 44 43 39 43 41 46 49 39 36 35 34 34 32 31 29 28 27 24 23 14 19 23
14 15 15 17 19 20 21 24 26 28 29 28 30 32 32 35 36 37 36 38 40 44 40 40 39 47 46 44 39 40 36 30 35 32 34 33 31 29 25 18 15 17 24
14 15 15 15 15 15 15 16 17 18 20 23 25 28 29 30 31 33 34 37 39 41 43 38 38 44 37 41 38 34 29 27 33 39 37 36 32 28 22 17 14 15 24
14 14 14 14 14 15 16 16 17 18 19 21 23 25 27 28 28 30 31 34 35 37 39 38 39 41 42 40 38 34 33 33 30 34 37 35 31 23 19 20 15 20 23
12 12 13 14 15 15 16 17 18 19 20 21 22 23 25 24 24 24 25 27 28 29 30 34 34 38 40 38 38 34 35 29 33 34 33 28 26 26 21 19 21 19 24
15 16 16 15 15 15 16 18 20 20 20 21 22 22 23 20 19 20 23 23 24 25 28 28 32 33 36 34 34 31 34 28 33 34 34 31 31 28 24 23 16 22 22
13 12 12 11 11 11 13 14 16 18 19 20 20 21 20 18 18 20 22 25 25 24 27 28 29 29 29 30 28 31 30 28 32 36 36 36 31 27 21 19 18 23 23
12 10 8 7 7 7 8 9 11 13 14 16 17 17 16 16 16 18 20 19 20 21 22 22 23 27 27 27 28 27 24 28 33 34 35 35 33 28 21 19 18 23 26
10 9 7 5 5 5 6 7 9 10 12 13 13 12 12 14 15 16 17 16 15 16 17 18 19 22 23 24 25 24 24 30 30 33 37 37 35 30 25 23 21 26 27
10 7 5 3 2 2 4 6 7 7 9 11 12 12 11 13 13 15 16 15 13 16 16 17 17 16 17 19 21 21 26 30 31 37 38 37 38 33 28 26 27 31 29
10 7 5 3 1 3 6 8 10 11 11 11 10 10 10 10 11 14 15 16 16 15 13 14 15 16 17 20 22 26 31 31 37 36 38 39 36 36 34 32 35 37 31
10 7 4 0 3 5 6 6 7 8 9 9 11 11 10 10 10 11 13 13 13 12 13 14 16 18 20 23 25 27 30 32 32 35 41 40 40 40 39 39 39 37 34
8 6 3 2 1 3 5 5 6 8 9 9 9 10 10 10 11 12 12 12 11 11 14 15 15 17 20 23 26 29 31 33 34 39 39 40 43 43 43 48 47 38 38
9 6 6 4 3 2 1 3 3 4 6 8 9 9 10 11 10 12 12 11 10 10 13 18 18 17 20 23 25 28 32 32 33 36 38 41 44 45 44 52 54 44 41
12 9 7 5 4 3 3 1 2 4 5 6 9 10 11 12 13 14 14 13 12 11 12 14 18 22 24 25 26 27 28 29 32 35 38 41 45 48 51 53 52 48 46
12 10 8 7 6 5 4 2 3 4 6 8 9 10 12 12 13 14 15 15 15 14 14 15 16 19 22 25 27 29 30 31 31 32 35 37 38 40 45 50 47 46 45
13 12 11 9 7 5 2 1 2 4 6 8 11 14 15 15 15 15 15 15 15 16 16 17 19 19 18 19 23 25 27 28 31 32 33 33 35 38 41 43 43 43 43
11 11 10 8 6 3 1 2 5 7 9 10 13 16 18 19 20 20 21 22 22 22 21 21 21 20 21 22 22 24 25 26 27 29 32 33 34 39 38 38 39 39 40
11 10 8 6 3 2 4 7 10 12 14 15 17 18 20 21 22 23 23 24 25 25 26 27 28 27 26 27 27 26 24 24 26 28 31 32 32 33 34 35 35 35 36
8 7 5 4 5 8 11 13 16 18 20 22 23 24 26 27 28 28 29 28 28 29 29 29 30 32 32 33 33 33 35 37 37 37 37 37 38 37 36 35 35 34 35
8 8 9 10 11 14 16 19 21 23 24 25 26 27 28 29 30 30 31 31 31 30 29 30 31 32 33 34 35 35 35 35 36 36 36 37 37 37 35 34 32 32 31
14 14 15 16 17 19 20 22 24 25 26 26 27 27 26 26 26 26 27 28 29 29 29 29 30 31 32 33 33 34 33 33 33 32 32 32 32 31 29 27 24 24 24
17 18 19 20 21 21 22 23 24 24 23 23 22 21 21 22 22 23 24 24 25 25 25 26 27 28 29 30 30 30 30 29 28 26 25 25 24 24 21 20 19 20 21
Wind_Direction
245 250 252 254 256 258 258 261 263 266 267 269 271 272 273 270 267 265 260 265 266 261 259 257 258 258 257 252 254 253 253 250 245 243 246 242 233 229 237 244 253 262 267
244 247 250 253 255 259 262 265 267 269 272 275 277 273 273 271 269 267 265 265 268 265 268 266 262 258 257 252 248 250 250 246 241 240 242 233 227 228 232 240 244 260 266
240 244 247 250 252 254 257 260 263 267 269 271 270 270 271 272 273 269 268 271 269 268 268 270 268 263 259 251 250 249 245 240 243 239 239 232 226 224 227 235 241 271 262
234 241 245 249 251 252 252 254 257 260 264 268 268 270 275 274 274 276 277 274 273 271 277 271 269 268 260 265 259 252 239 239 236 235 234 229 224 223 226 232 250 280 258
231 237 241 243 247 250 253 256 256 255 255 254 256 260 264 268 273 275 276 276 275 273 270 279 277 269 269 246 266 248 238 240 231 234 228 225 222 222 224 228 262 271 261
243 247 250 254 257 259 258 258 260 263 264 264 265 265 266 266 264 262 262 267 268 271 273 279 274 276 262 266 253 246 245 230 234 237 231 227 225 220 224 240 255 268 269
239 243 246 249 251 253 254 256 258 259 260 262 263 266 269 271 271 270 268 266 263 267 273 274 274 272 262 260 247 239 224 229 236 245 242 236 225 223 233 239 261 269 283
248 246 247 250 252 255 258 262 263 263 264 266 268 270 272 273 272 274 271 267 265 266 268 273 272 273 264 256 246 236 235 229 236 237 236 235 236 231 236 240 251 278 262
238 243 247 250 253 257 259 258 261 264 267 269 272 273 275 280 281 280 282 280 275 275 271 270 269 269 268 254 248 240 238 237 234 241 237 232 234 234 243 245 258 267 274
232 238 245 250 258 268 274 278 278 278 278 279 280 281 282 284 279 280 284 281 282 282 275 279 275 264 258 250 244 238 233 236 249 247 236 232 233 234 250 247 261 277 276
219 222 228 242 251 257 265 271 275 279 282 281 282 281 285 285 281 282 282 289 288 290 291 288 282 272 263 247 245 245 245 255 258 246 243 241 238 236 244 252 276 291 274
197 199 207 222 246 263 277 280 283 285 283 278 276 277 281 283 282 283 286 293 295 293 292 290 284 278 272 253 247 244 250 255 251 250 246 243 242 238 248 259 279 281 275
181 186 186 197 227 289 309 313 313 312 312 309 308 299 286 280 288 293 288 292 303 306 304 297 289 277 263 247 248 258 255 254 260 256 250 244 246 243 249 260 270 271 262
174 176 184 191 277 307 324 322 323 324 318 312 309 313 317 312 295 283 289 292 292 293 299 299 291 279 262 260 255 254 253 258 264 259 254 253 251 247 251 260 270 268 258
171 170 170 359 328 320 315 318 330 333 329 330 328 330 333 325 309 298 285 281 285 288 284 279 277 275 269 263 256 257 260 263 265 263 260 257 254 251 254 262 268 267 256
173 171 180 215 261 324 326 332 337 336 339 336 339 338 338 332 323 316 308 296 283 272 274 275 281 278 272 269 268 267 265 268 268 267 268 265 259 258 258 264 268 263 257
188 195 199 209 217 207 278 321 355 11 354 346 340 342 340 343 337 327 320 306 288 282 282 291 293 291 291 289 283 278 274 270 265 262 264 269 270 266 264 270 272 267 257
183 184 184 181 176 146 125 116 47 49 30 3 351 343 346 343 341 337 333 324 312 299 290 282 287 292 294 292 292 290 288 285 281 276 270 268 269 264 264 271 272 270 264
179 176 172 165 156 144 138 97 41 15 2 349 341 341 336 335 333 328 325 320 318 315 306 296 290 287 287 290 291 293 293 291 289 286 283 278 276 275 272 272 275 272 270
169 162 160 156 150 135 115 89 3 346 336 327 325 323 321 323 324 323 321 313 309 304 299 293 293 291 286 284 287 288 290 292 292 289 289 291 290 284 281 276 277 275 272
162 159 156 157 156 154 241 312 322 325 317 319 320 318 316 317 315 314 313 311 309 306 302 293 287 288 297 302 300 296 293 291 290 290 291 293 293 289 288 282 281 279 277
168 168 171 175 190 258 303 305 305 305 307 308 308 306 305 304 303 300 299 297 295 294 294 294 293 288 282 275 271 271 269 271 272 275 280 285 286 287 287 286 284 282 278
187 195 211 241 273 290 297 302 303 303 302 302 301 301 302 303 303 301 300 299 297 295 292 289 288 288 286 284 281 278 275 274 273 275 276 278 278 278 279 280 281 280 277
225 238 252 263 275 285 291 293 296 298 299 301 302 302 302 302 302 302 302 302 300 298 295 292 290 288 286 287 286 285 283 281 279 277 276 276 276 278 279 280 280 280 278
245 253 263 272 279 285 289 293 296 298 298 299 300 302 303 303 304 304 304 304 303 302 302 299 295 292 291 289 288 288 287 287 286 284 281 279 278 276 275 275 274 277 276
257 264 271 277 283 287 290 292 294 296 297 298 300 303 305 307 308 309 309 307 306 306 306 305 303 301 299 297 296 296 295 293 290 285 280 276 275 274 272 271 273 274 274